Regional Weather Roundup
Issued by NWS Sterling, VA

Home | Current Version | Previous Version | Graphics & Text | Print | Product List | Glossary On
Versions: 1 2 3 4 5 6 7 8 9 10 11 12 13 14 15 16 17 18 19 20 21 22 23 24 25 26 27 28 29 30 31 32 33 34 35 36 37 38 39 40 41 42 43 44 45 46 47 48 49 50
000
ASUS41 KLWX 011910
RWRLWX

REGIONAL WEATHER ROUNDUP
NATIONAL WEATHER SERVICE BALTIMORE MD/WASHINGTON DC
300 PM EDT WED OCT 01 2014

Note: "FAIR" indicates few or no clouds below 12,000 feet
with no significant weather and/or obstructions to visibility.
 TC=TEMPERATURE CELSIUS

 * =Non NWS site. Station does not report precipitation (e.g. rain,
    snow, etc.), thunder, or fog.

DCZ001-MDZ009-015-VAZ040>042-051-053>054-012000-
WASHINGTON METRO

CITY           SKY/WX    TMP DP  RH WIND       PRES   REMARKS
WASHINGTON NAT PTSUNNY   76  60  57 N6        30.02F
DULLES         PTSUNNY   69  61  75 NE5       30.03S
ANDREWS AFB    CLOUDY    73  61  64 NE7       30.02S
QUANTICO       PTSUNNY   72  60  66 NE8       30.02S
COLLEGE PARK*  CLOUDY    72  61  68 CALM      30.02S
LEESBURG*      CLOUDY    70  64  83 NE5       30.04S
MANASSAS*      PTSUNNY   72  63  73 NE3       30.02S
GAITHERSBURG*  CLOUDY    68  61  77 W5        30.07S

$$

MDZ006>007-011-014-012000-
BALTIMORE METRO

CITY           SKY/WX    TMP DP  RH WIND       PRES   REMARKS
BWI AIRPORT    PTSUNNY   71  58  63 CALM      30.01F
MD SCIENCE CTR   N/A     71  58  63 MISG      30.02F
MARTIN STATE   PTSUNNY   73  61  64 CALM      30.02F
ANNAPOLIS        N/A     71  57  61 NE8       30.01F
FORT MEADE*    CLOUDY    70  59  68 CALM      30.04S

$$

MDZ012-015-019>023-012000-
MARYLAND EASTERN SHORE

CITY           SKY/WX    TMP DP  RH WIND       PRES   REMARKS
OCEAN CITY     CLOUDY    70  61  73 NE13      29.99S
SALISBURY      CLOUDY    73  61  65 N9        29.99F
BAY BRIDGE AP*   N/A     72  59  64 N5        30.02S
CAMBRIDGE*     PTSUNNY   72  59  64 NW6       30.00S
EASTON*        CLOUDY    73  61  64 NE6       30.05S

$$

MDZ017>025-012000-
SOUTHERN MARYLAND

CITY           SKY/WX    TMP DP  RH WIND       PRES   REMARKS
PATUXENT RIVER MOSUNNY   73  59  61 VRB3      30.01S
ST INIGOES     PTSUNNY   73  57  57 NW5       30.00S
LEONARDTOWN*   CLOUDY    70  59  68 NE5       30.03S

$$

MDZ003>005-012000-
NORTH CENTRAL MARYLAND

CITY           SKY/WX    TMP DP  RH WIND       PRES   REMARKS
FREDERICK*     CLOUDY    72  64  78 VRB5      30.06F
HAGERSTOWN APT CLOUDY    68  58  70 E5        30.04F
WESTMINSTER*   PTSUNNY   68  63  83 N6        30.04S

$$

MDZ501>502-012000-
WESTERN MARYLAND

CITY           SKY/WX    TMP DP  RH WIND       PRES   REMARKS
OAKLAND*       PTSUNNY   64  59  82 E9        30.06S
CUMBERLAND*    MOSUNNY   73  55  53 E3        30.05F

$$

VAZ025>031-012000-
SHENANDOAH VALLEY

CITY           SKY/WX    TMP DP  RH WIND       PRES   REMARKS
WINCHESTER*    MOSUNNY   70  61  73 E5        30.03S
STAUNTON*      PTSUNNY   73  58  57 SE3       30.02F

$$

WVZ021-048>050-054>055-012000-
EASTERN WEST VIRGINIA PANHANDLE

CITY           SKY/WX    TMP DP  RH WIND       PRES   REMARKS
MARTINSBURG    CLOUDY    69  58  67 E3        30.04F
PETERSBURG*    CLOUDY   N/A N/A N/A CALM      30.03S

$$

VAZ036>039-050-012000-
CENTRAL FOOTHILLS

CITY           SKY/WX    TMP DP  RH WIND       PRES   REMARKS
CHARLOTTESVILL PTSUNNY   73  62  68 CALM      30.01F
ORANGE*        CLOUDY    72  63  73 NE5       30.03S

$$

VAZ055>057-012000-
NORTH AND CENTRAL PIEDMONT

CITY           SKY/WX    TMP DP  RH WIND       PRES   REMARKS
FREDERICKSBRG* PTSUNNY   75  60  60 NE5       30.00S
STAFFORD*      LGT RAIN  71  62  73 NE3       30.05S

$$

NCZ024-NYZ072-PAZ021-071-VAZ022-071-012000-
OTHER REGIONAL OBSERVATIONS

CITY           SKY/WX    TMP DP  RH WIND       PRES   REMARKS
NEW YORK CITY  CLOUDY    64  58  80 VRB7      30.06S
PHILADELPHIA   PTSUNNY   73  57  57 NE8       30.01S
PITTSBURGH     CLOUDY    62  56  80 CALM      30.03F
ROANOKE        PTSUNNY   74  60  61 SE10      30.02F
RICHMOND       PTSUNNY   78  60  53 CALM      29.98F
RALEIGH        PTSUNNY   77  61  57 N3        30.00F

$$

ANZ530>537-012000-
MARINE OBSERVATIONS

STATION/POSITION TIME  TEMP    WIND        PRES
                       AIR SEA DIR/SP/G
                 (UTC) (F)     (DEG/KT/KT) (MB)
THOMAS PT LIGHT  1900   68 72   40/  7/  8 1017.4F
BALT KEY BRIDGE  1900   69     170/  5/  6 1016.2S
COVE POINT       1900   67     340/  9/ 11 1016.3R
LEWISETTA        1900   70 72   70/  3/  5 1015.7S
SOLOMONS ISLAND  1900      73                N/A
PINEY POINT      1900           40/  6/  7   N/A

$$



USA.gov is the U.S. government's official web portal to all federal, state and local government web resources and services.